Simultaneous Nadir Overpasses (SNOs) Predictions

Prediction of SNOs between NPP and TERRA Satellite Orbit:

Table of predicted SNOs for the next 14.0 days since TLE Epoch: 2/8/2014
Index Date (NPP) Time (NPP) Lat,Lon (NPP) SZA (NPP ) Date (TERRA) Time (TERRA) Lat,Lon (TERRA) SZA (TERRA ) Distance(km) Time Diff (sec)
1 02/09/2014 00:27:16 -68.72, -8.03 96.56 02/09/2014 00:28:20 -68.72, -8.04 96.58 1.12 64
2 02/09/2014 01:18:00 68.59, 159.46 83.29 02/09/2014 01:17:47 68.61, 159.47 83.31 2.50 13
3 02/09/2014 02:08:35 -68.14, -32.63 97.19 02/09/2014 02:07:23 -68.17, -33.43 97.13 33.19 72
4 02/11/2014 16:44:13 -68.66, 107.83 97.50 02/11/2014 16:44:52 -68.67, 107.77 97.49 2.67 39
5 02/11/2014 17:34:58 68.59, -84.76 82.41 02/11/2014 17:34:19 68.56, -84.72 82.39 2.93 39
6 02/14/2014 08:10:37 69.18, 55.58 82.15 02/14/2014 08:11:47 69.09, 56.54 82.03 39.11 70
7 02/14/2014 09:01:11 -68.66,-136.40 98.40 02/14/2014 09:01:23 -68.65,-136.38 98.41 0.93 12
8 02/14/2014 09:51:55 68.54, 31.08 81.46 02/14/2014 09:50:50 68.54, 31.12 81.47 1.98 65
9 02/17/2014 00:27:27 68.76, 171.92 80.80 02/17/2014 00:28:23 68.76, 171.99 80.79 2.65 56
10 02/17/2014 01:18:08 -68.62, -20.56 99.37 02/17/2014 01:17:54 -68.61, -20.57 99.38 1.21 14
11 02/17/2014 02:08:40 67.85, 147.73 79.83 02/17/2014 02:07:31 67.93, 146.27 79.96 62.01 69
12 02/19/2014 16:44:22 68.68, -72.19 79.76 02/19/2014 16:44:53 68.68, -72.24 79.76 2.13 31
13 02/19/2014 17:35:04 -68.58, 95.26
